Flag for Germany Weather past 2 weeks in Erfurt, Thuringia, Germany

Now
55 °F

Clear.


Feels Like: 53 °F
Forecast: 49 / 64 °F
Wind: 8 mph from South

Location: Erfurt-Bindersleben

Current Time: Sep 3, 2015 at 3:02:50 AM

Latest Report: Sep 3, 2015 at 2:20 AM


Visibility: 10 mi

Pressure: 29.98 "Hg

Humidity: 77%

Dew point: 48 °F

Location of ErfurtLocation

Historic Weather in Erfurt — Graph

°F

Erfurt temperature yesterday

Maximum temperature yesterday: 68 °F (at 3:50 PM)
Minimum temperature yesterday: 50 °F (at 3:50 AM)
Average temperature yesterday: 59 °F

Past Weeks' High & Low Weather Summary

 TemperatureHumidityPressure
High91 °F (Aug 30, 3:50 PM)100% (Aug 19, 4:20 AM)30.30 "Hg (Aug 19, 4:20 AM)
Low48 °F (Aug 19, 6:50 AM)28% (Aug 31, 4:20 PM)29.71 "Hg (Aug 24, 1:50 PM)
Average65 °F69%30.03 "Hg
* Reported Aug 19 1:20 AM — Sep 3 1:50 AM, Erfurt, Weather by CustomWeather, © 2015

Note: Actual official high and low records may vary slightly from our data, if they occured in-between our weather recording intervals... More about our weather records

Advertising

Erfurt weather history for previous 24 hours

 ConditionsComfort  
Time TempWeatherWind HumidityBarometerVisibility
1:50 AM
Thu, Sep 3
52 °FClear.7 mph82%29.98 "Hg10 mi
1:20 AM54 °FClear.7 mph77%29.98 "Hg10 mi
12:50 AM55 °FClear.6 mph72%29.98 "Hg10 mi
11:20 PM
Wed, Sep 2
59 °FClear.6 mph63%30.01 "Hg10 mi
10:50 PM57 °FClear.5 mph67%30.01 "Hg10 mi
10:20 PM59 °FClear.6 mph63%30.01 "Hg10 mi
9:50 PM59 °FClear.5 mph63%30.01 "Hg10 mi
9:20 PM59 °FClear.5 mph63%30.01 "Hg10 mi
8:50 PM63 °FSunny.2 mph52%30.01 "Hg10 mi
8:20 PM63 °FSunny.1 mph56%30.01 "Hg10 mi
7:50 PM64 °FSunny.1 mph49%30.01 "Hg10 mi
7:20 PM64 °FSunny.2 mph52%30.01 "Hg10 mi
6:50 PM66 °FPassing clouds.5 mph46%30.01 "HgN/A
6:20 PM66 °FPassing clouds.6 mph46%30.01 "HgN/A
5:20 PM66 °FPassing clouds.6 mph43%30.01 "HgN/A
4:50 PM66 °FPassing clouds.7 mph46%30.01 "HgN/A
4:20 PM66 °FPassing clouds.8 mph43%30.01 "HgN/A
3:50 PM68 °FPassing clouds.6 mph43%30.01 "HgN/A
3:20 PM66 °FScattered clouds.9 mph46%30.01 "HgN/A
2:50 PM66 °FPassing clouds.10 mph46%30.01 "HgN/A
2:20 PM66 °FScattered clouds.8 mph46%30.04 "HgN/A
1:50 PM66 °FScattered clouds.7 mph46%30.04 "HgN/A
1:20 PM64 °FScattered clouds.8 mph52%30.04 "HgN/A
12:50 PM64 °FScattered clouds.7 mph52%30.04 "HgN/A
12:20 PM63 °FScattered clouds.8 mph56%30.04 "HgN/A
11:50 AM63 °FScattered clouds.7 mph56%30.07 "HgN/A
11:20 AM63 °FScattered clouds.8 mph56%30.07 "HgN/A
10:50 AM61 °FScattered clouds.7 mph63%30.07 "HgN/A
10:20 AM59 °FPassing clouds.7 mph72%30.07 "HgN/A
9:50 AM59 °FPassing clouds.8 mph72%30.07 "HgN/A
9:20 AM57 °FScattered clouds.6 mph82%30.07 "HgN/A
8:50 AM55 °FScattered clouds.8 mph88%30.07 "HgN/A
8:20 AM55 °FScattered clouds.3 mph82%30.07 "HgN/A
7:50 AM52 °FScattered clouds.6 mph94%30.04 "HgN/A
7:20 AM50 °FPassing clouds.6 mph94%30.04 "HgN/A
6:50 AM50 °FPassing clouds.6 mph94%30.04 "HgN/A
6:20 AM50 °FPassing clouds.7 mph94%30.04 "HgN/A
5:50 AM50 °FPassing clouds.6 mph100%30.04 "HgN/A
5:20 AM50 °FFog.5 mph100%30.04 "HgN/A
4:50 AM52 °FPassing clouds.6 mph94%30.04 "HgN/A
4:20 AM50 °FFog.6 mph100%30.04 "HgN/A
3:50 AM50 °FFog.5 mph100%30.04 "HgN/A
3:20 AM52 °FClear.6 mph94%30.04 "Hg10 mi
Weather by CustomWeather, © 2015

See weather overviewHow to use our weather pages